Location: Владивосток
(43.1151°N, 131.8856°E)
Time: 10:02:00
(UTC+10:00)

UKube-1 - Visible Passes

Search period start: 19 April 2024 00:00
Search period end: 29 April 2024 00:00
Orbit: 588 x 591 km, 98.3° (Epoch: 18 April)

Date Brightness Start Highest point End Pass type
(mag) Time Alt. Az. Time Alt. Az. Time Alt. Az.
19 Apr ? 01:44:50 10° NNE 01:45:47 16° NE 01:45:47 16° NE visible
19 Apr ? 03:21:03 10° NNW 03:22:19 15° NW 03:22:19 15° NW visible
20 Apr ? 01:52:41 10° NNE 01:53:54 18° NNE 01:53:54 18° NNE visible
20 Apr ? 03:29:18 10° NNW 03:30:27 14° NW 03:30:27 14° NW visible
21 Apr ? 02:00:32 10° NNE 02:02:00 21° NNE 02:02:00 21° NNE visible
21 Apr ? 03:37:38 10° NNW 03:38:32 12° NW 03:38:32 12° NW visible
22 Apr ? 02:08:23 10° NNE 02:10:04 23° NNE 02:10:04 23° NNE visible
22 Apr ? 03:46:12 10° NW 03:46:36 11° NW 03:46:36 11° NW visible
23 Apr ? 02:16:14 10° NNE 02:18:06 26° NNE 02:18:06 26° NNE visible
24 Apr ? 02:24:05 10° N 02:26:07 28° N 02:26:07 28° N visible
25 Apr ? 02:31:56 10° N 02:34:06 29° N 02:34:06 29° N visible
26 Apr ? 02:39:46 10° N 02:42:04 29° NNW 02:42:04 29° NNW visible
27 Apr ? 01:13:07 10° NE 01:13:28 11° NE 01:13:28 11° NE visible
27 Apr ? 02:47:37 10° N 02:50:01 29° NNW 02:50:01 29° NNW visible
28 Apr ? 01:20:33 10° NE 01:21:23 14° NE 01:21:23 14° NE visible
28 Apr ? 02:55:27 10° N 02:57:55 27° NNW 02:57:55 27° NNW visible
